Date,TemperatureHighF,TemperatureAvgF,TemperatureLowF,DewpointHighF,DewpointAvgF,DewpointLowF,HumidityHigh,HumidityAvg,HumidityLow,PressureMaxIn,PressureMinIn,WindSpeedMaxMPH,WindSpeedAvgMPH,GustSpeedMaxMPH,PrecipitationSumIn
2013-1-1,68,57,51,-100,-100,-100,0,0,100,0.00,40.00,0,-999,0,0.00
2013-1-2,50,45,43,-100,-100,-100,0,0,100,0.00,40.00,0,-999,0,0.00
2013-1-3,56,48,39,-100,-100,-100,0,0,100,0.00,40.00,0,-999,0,0.00
2013-1-4,54,48,44,-100,-100,-100,0,0,100,0.00,40.00,0,-999,0,0.00
2013-1-5,50,47,44,-100,-100,-100,0,0,100,0.00,40.00,0,-999,0,0.00
2013-1-6,61,51,44,-100,-100,-100,0,0,100,0.00,40.00,0,-999,0,0.00
2013-1-7,62,51,38,-100,-100,-100,0,0,100,0.00,40.00,0,-999,0,0.00
2013-1-8,65,60,53,-100,-100,-100,0,0,100,0.00,40.00,0,-999,0,0.00
2013-1-9,67,64,62,-100,-100,-100,0,0,100,0.00,40.00,0,-999,0,0.00
2013-1-10,69,62,57,-100,-100,-100,0,0,100,0.00,40.00,0,-999,0,0.00
2013-1-11,75,62,49,-100,-100,-100,0,0,100,0.00,40.00,0,-999,0,0.00
2013-1-12,74,72,67,-100,-100,-100,0,0,100,0.00,40.00,0,-999,0,0.00
2013-1-13,73,58,46,-100,-100,-100,0,0,100,0.00,40.00,0,-999,0,0.00
2013-1-14,47,43,42,-100,-100,-100,0,0,100,0.00,40.00,0,-999,0,0.00
2013-1-15,42,40,36,-100,-100,-100,0,0,100,0.00,40.00,0,-999,0,0.00
2013-1-16,54,43,36,-100,-100,-100,0,0,100,0.00,40.00,0,-999,0,0.00
2013-1-17,63,46,32,-100,-100,-100,0,0,100,0.00,40.00,0,-999,0,0.00
2013-1-18,64,46,35,-100,-100,-100,0,0,100,0.00,40.00,0,-999,0,0.00
2013-1-19,66,49,35,-100,-100,-100,0,0,100,0.00,40.00,0,-999,0,0.00
2013-1-20,73,54,41,-100,-100,-100,0,0,100,0.00,40.00,0,-999,0,0.00
2013-1-21,74,57,43,-100,-100,-100,0,0,100,0.00,40.00,0,-999,0,0.00
2013-1-22,71,57,43,-100,-100,-100,0,0,100,0.00,40.00,0,-999,0,0.00
2013-1-23,74,58,44,-100,-100,-100,0,0,100,0.00,40.00,0,-999,0,0.00
2013-1-24,73,64,58,-100,-100,-100,0,0,100,0.00,40.00,0,-999,0,0.00
2013-1-25,78,69,62,-100,-100,-100,0,0,100,0.00,40.00,0,-999,0,0.00
2013-1-26,79,68,59,-100,-100,-100,0,0,100,0.00,40.00,0,-999,0,0.00
2013-1-27,74,67,61,-100,-100,-100,0,0,100,0.00,40.00,0,-999,0,0.00
2013-1-28,76,70,67,-100,-100,-100,0,0,100,0.00,40.00,0,-999,0,0.00
2013-1-29,76,72,69,-100,-100,-100,0,0,100,0.00,40.00,0,-999,0,0.00
2013-1-30,73,56,47,-100,-100,-100,0,0,100,0.00,40.00,0,-999,0,0.00
2013-1-31,69,59,51,-100,-100,-100,0,0,100,0.00,40.00,0,-999,0,0.00
2013-2-1,72,57,46,-100,-100,-100,0,0,100,0.00,40.00,0,-999,0,0.00
2013-2-2,73,57,47,-100,-100,-100,0,0,100,0.00,40.00,0,-999,0,0.00
2013-2-3,74,58,51,-100,-100,-100,0,0,100,0.00,40.00,0,-999,0,0.00
2013-2-4,69,60,51,-100,-100,-100,0,0,100,0.00,40.00,0,-999,0,0.00
2013-2-5,78,68,62,-100,-100,-100,0,0,100,0.00,40.00,0,-999,0,0.00
2013-2-6,66,63,62,-100,-100,-100,0,0,100,0.00,40.00,0,-999,0,0.00
2013-2-7,69,63,58,-100,-100,-100,0,0,100,0.00,40.00,0,-999,0,0.00
2013-2-8,71,62,55,-100,-100,-100,0,0,100,0.00,40.00,0,-999,0,0.00
2013-2-9,66,59,50,-100,-100,-100,0,0,100,0.00,40.00,0,-999,0,0.00
2013-2-10,76,68,64,-100,-100,-100,0,0,100,0.00,40.00,0,-999,0,0.00
2013-2-11,65,57,53,-100,-100,-100,0,0,100,0.00,40.00,0,-999,0,0.00
2013-2-12,69,61,54,-100,-100,-100,0,0,100,0.00,40.00,0,-999,0,0.00
2013-2-13,67,53,47,-100,-100,-100,0,0,100,0.00,40.00,0,-999,0,0.00
2013-2-14,73,54,40,-100,-100,-100,0,0,100,0.00,40.00,0,-999,0,0.00
2013-2-15,75,53,40,-100,-100,-100,0,0,100,0.00,40.00,0,-999,0,0.00
2013-2-16,64,50,40,-100,-100,-100,0,0,100,0.00,40.00,0,-999,0,0.00
2013-2-17,72,54,40,-100,-100,-100,0,0,100,0.00,40.00,0,-999,0,0.00
2013-2-18,73,68,60,-100,-100,-100,0,0,100,0.00,40.00,0,-999,0,0.00
2013-2-19,73,57,49,-100,-100,-100,0,0,100,0.00,40.00,0,-999,0,0.00
2013-2-20,59,54,51,-100,-100,-100,0,0,100,0.00,40.00,0,-999,0,0.00
2013-2-21,74,65,58,-100,-100,-100,0,0,100,0.00,40.00,0,-999,0,0.00
2013-2-22,69,62,58,-100,-100,-100,0,0,100,0.00,40.00,0,-999,0,0.00
2013-2-23,73,60,51,-100,-100,-100,0,0,100,0.00,40.00,0,-999,0,0.00
2013-2-24,72,60,45,-100,-100,-100,0,0,100,0.00,40.00,0,-999,0,0.00
2013-2-25,76,67,51,-100,-100,-100,0,0,100,0.00,40.00,0,-999,0,0.00
2013-2-26,65,54,45,-100,-100,-100,0,0,100,0.00,40.00,0,-999,0,0.00
2013-2-27,74,57,45,-100,-100,-100,0,0,100,0.00,40.00,0,-999,0,0.00
2013-2-28,58,50,43,-100,-100,-100,0,0,100,0.00,40.00,0,-999,0,0.00
2013-3-1,66,53,40,-100,-100,-100,0,0,100,0.00,40.00,0,-999,0,0.00
2013-3-2,57,48,37,-100,-100,-100,0,0,100,0.00,40.00,0,-999,0,0.00
2013-3-3,66,48,32,-100,-100,-100,0,0,100,0.00,40.00,0,-999,0,0.00
2013-3-4,74,66,55,-100,-100,-100,0,0,100,0.00,40.00,0,-999,0,0.00
2013-3-5,76,69,58,-100,-100,-100,0,0,100,0.00,40.00,0,-999,0,0.00
2013-3-6,71,55,39,-100,-100,-100,0,0,100,0.00,40.00,0,-999,0,0.00
2013-3-7,70,56,41,-100,-100,-100,0,0,100,0.00,40.00,0,-999,0,0.00
2013-3-8,73,62,48,-100,-100,-100,0,0,100,0.00,40.00,0,-999,0,0.00
2013-3-9,71,65,61,-100,-100,-100,0,0,100,0.00,40.00,0,-999,0,0.00
2013-3-10,70,61,56,-100,-100,-100,0,0,100,0.00,40.00,0,-999,0,0.00
2013-3-11,65,55,47,-100,-100,-100,0,0,100,0.00,40.00,0,-999,0,0.00
2013-3-12,76,54,37,-100,-100,-100,0,0,100,0.00,40.00,0,-999,0,0.00
2013-3-13,77,60,45,-100,-100,-100,0,0,100,0.00,40.00,0,-999,0,0.00
2013-3-14,73,58,43,-100,-100,-100,0,0,100,0.00,40.00,0,-999,0,0.00
2013-3-15,77,63,48,-100,-100,-100,0,0,100,0.00,40.00,0,-999,0,0.00
2013-3-16,80,70,61,-100,-100,-100,0,0,100,0.00,40.00,0,-999,0,0.00
2013-3-17,79,72,65,-100,-100,-100,0,0,100,0.00,40.00,0,-999,0,0.00
2013-3-18,88,80,69,-100,-100,-100,0,0,100,0.00,40.00,0,-999,0,0.00
2013-3-19,80,71,58,-100,-100,-100,0,0,100,0.00,40.00,0,-999,0,0.00
2013-3-20,78,68,54,-100,-100,-100,0,0,100,0.00,40.00,0,-999,0,0.00
2013-3-21,72,63,54,-100,-100,-100,0,0,100,0.00,40.00,0,-999,0,0.00
2013-3-22,84,75,67,-100,-100,-100,0,0,100,0.00,40.00,0,-999,0,0.00
2013-3-23,77,72,69,-100,-100,-100,0,0,100,0.00,40.00,0,-999,0,0.00
2013-3-24,69,64,51,-100,-100,-100,0,0,100,0.00,40.00,0,-999,0,0.00
2013-3-25,64,55,40,-100,-100,-100,0,0,100,0.00,40.00,0,-999,0,0.00
2013-3-26,65,50,38,-100,-100,-100,0,0,100,0.00,40.00,0,-999,0,0.00
2013-3-27,69,52,38,-100,-100,-100,0,0,100,0.00,40.00,0,-999,0,0.00
2013-3-28,73,61,51,-100,-100,-100,0,0,100,0.00,40.00,0,-999,0,0.00
2013-3-29,76,63,54,-100,-100,-100,0,0,100,0.00,40.00,0,-999,0,0.00
2013-3-30,79,69,63,-100,-100,-100,0,0,100,0.00,40.00,0,-999,0,0.00
2013-3-31,83,71,61,-100,-100,-100,0,0,100,0.00,40.00,0,-999,0,0.00
2013-4-1,83,70,62,-100,-100,-100,0,0,100,0.00,40.00,0,-999,0,0.00
2013-4-2,76,69,61,-100,-100,-100,0,0,100,0.00,40.00,0,-999,0,0.00
2013-4-3,67,59,52,-100,-100,-100,0,0,100,0.00,40.00,0,-999,0,0.00
2013-4-4,58,53,50,-100,-100,-100,0,0,100,0.00,40.00,0,-999,0,0.00
2013-4-5,77,60,47,-100,-100,-100,0,0,100,0.00,40.00,0,-999,0,0.00
2013-4-6,76,65,54,-100,-100,-100,0,0,100,0.00,40.00,0,-999,0,0.00
2013-4-7,80,71,63,-100,-100,-100,0,0,100,0.00,40.00,0,-999,0,0.00
2013-4-8,78,73,68,-100,-100,-100,0,0,100,0.00,40.00,0,-999,0,0.00
2013-4-9,80,73,69,-100,-100,-100,0,0,100,0.00,40.00,0,-999,0,0.00
2013-4-10,77,75,74,-100,-100,-100,0,0,100,0.00,40.00,0,-999,0,0.00
2013-4-11,70,57,48,-100,-100,-100,0,0,100,0.00,40.00,0,-999,0,0.00
2013-4-12,83,63,50,-100,-100,-100,0,0,100,0.00,40.00,0,-999,0,0.00
2013-4-13,82,67,53,-100,-100,-100,0,0,100,0.00,40.00,0,-999,0,0.00
2013-4-14,83,70,64,-100,-100,-100,0,0,100,0.00,40.00,0,-999,0,0.00
2013-4-15,87,75,66,-100,-100,-100,0,0,100,0.00,40.00,0,-999,0,0.00
2013-4-16,82,76,74,-100,-100,-100,0,0,100,0.00,40.00,0,-999,0,0.00
2013-4-17,79,76,74,-100,-100,-100,0,0,100,0.00,40.00,0,-999,0,0.00
2013-4-18,77,71,54,-100,-100,-100,0,0,100,0.00,40.00,0,-999,0,0.00
2013-4-19,68,55,47,-100,-100,-100,0,0,100,0.00,40.00,0,-999,0,0.00
2013-4-20,73,59,42,-100,-100,-100,0,0,100,0.00,40.00,0,-999,0,0.00
2013-4-21,77,66,48,-100,-100,-100,0,0,100,0.00,40.00,0,-999,0,0.00
2013-4-22,80,67,56,-100,-100,-100,0,0,100,0.00,40.00,0,-999,0,0.00
2013-4-23,82,72,62,-100,-100,-100,0,0,100,0.00,40.00,0,-999,0,0.00
2013-4-24,74,64,51,-100,-100,-100,0,0,100,0.00,40.00,0,-999,0,0.00
2013-4-25,76,65,54,-100,-100,-100,0,0,100,0.00,40.00,0,-999,0,0.00
2013-4-26,80,72,66,-100,-100,-100,0,0,100,0.00,40.00,0,-999,0,0.00
2013-4-27,79,74,69,-100,-100,-100,0,0,100,0.00,40.00,0,-999,0,0.00
2013-4-28,83,75,66,-100,-100,-100,0,0,100,0.00,40.00,0,-999,0,0.00
2013-4-29,87,73,63,-100,-100,-100,0,0,100,0.00,40.00,0,-999,0,0.00
2013-4-30,84,77,71,-100,-100,-100,0,0,100,0.00,40.00,0,-999,0,0.00
2013-5-1,87,78,69,-100,-100,-100,0,0,100,0.00,40.00,0,-999,0,0.00
2013-5-2,81,68,57,-100,-100,-100,0,0,100,0.00,40.00,0,-999,0,0.00
2013-5-3,69,57,48,-100,-100,-100,0,0,100,0.00,40.00,0,-999,0,0.00
2013-5-4,80,64,47,-100,-100,-100,0,0,100,0.00,40.00,0,-999,0,0.00
2013-5-5,72,61,51,-100,-100,-100,0,0,100,0.00,40.00,0,-999,0,0.00
2013-5-6,81,66,51,-100,-100,-100,0,0,100,0.00,40.00,0,-999,0,0.00
2013-5-7,87,70,62,-100,-100,-100,0,0,100,0.00,40.00,0,-999,0,0.00
2013-5-8,84,75,61,-100,-100,-100,0,0,100,0.00,40.00,0,-999,0,0.00
2013-5-9,77,74,70,-100,-100,-100,0,0,100,0.00,40.00,0,-999,0,0.00
2013-5-10,80,72,66,-100,-100,-100,0,0,100,0.00,40.00,0,-999,0,0.00
2013-5-11,87,77,69,-100,-100,-100,0,0,100,0.00,40.00,0,-999,0,0.00
2013-5-12,84,75,64,-100,-100,-100,0,0,100,0.00,40.00,0,-999,0,0.00
2013-5-13,82,68,57,-100,-100,-100,0,0,100,0.00,40.00,0,-999,0,0.00
2013-5-14,85,73,60,-100,-100,-100,0,0,100,0.00,40.00,0,-999,0,0.00
2013-5-15,76,72,68,-100,-100,-100,0,0,100,0.00,40.00,0,-999,0,0.00
2013-5-16,83,75,71,-100,-100,-100,0,0,100,0.00,40.00,0,-999,0,0.00
2013-5-17,87,79,73,-100,-100,-100,0,0,100,0.00,40.00,0,-999,0,0.00
2013-5-18,90,81,76,-100,-100,-100,0,0,100,0.00,40.00,0,-999,0,0.00
2013-5-19,89,82,76,-100,-100,-100,0,0,100,0.00,40.00,0,-999,0,0.00
2013-5-20,87,81,78,-100,-100,-100,0,0,100,0.00,40.00,0,-999,0,0.00
2013-5-21,87,81,77,-100,-100,-100,0,0,100,0.00,40.00,0,-999,0,0.00
2013-5-22,89,80,73,-100,-100,-100,0,0,100,0.00,40.00,0,-999,0,0.00
2013-5-23,91,80,74,-100,-100,-100,0,0,100,0.00,40.00,0,-999,0,0.00
2013-5-24,92,82,75,-100,-100,-100,0,0,100,0.00,40.00,0,-999,0,0.00
2013-5-25,89,80,73,-100,-100,-100,0,0,100,0.00,40.00,0,-999,0,0.00
2013-5-26,90,81,74,-100,-100,-100,0,0,100,0.00,40.00,0,-999,0,0.00
2013-5-27,89,80,73,-100,-100,-100,0,0,100,0.00,40.00,0,-999,0,0.00
2013-5-28,89,80,76,-100,-100,-100,0,0,100,0.00,40.00,0,-999,0,0.00
2013-5-29,85,81,76,-100,-100,-100,0,0,100,0.00,40.00,0,-999,0,0.00
2013-5-30,89,82,79,-100,-100,-100,0,0,100,0.00,40.00,0,-999,0,0.00
2013-5-31,91,83,79,-100,-100,-100,0,0,100,0.00,40.00,0,-999,0,0.00
2013-6-1,92,84,80,-100,-100,-100,0,0,100,0.00,40.00,0,-999,0,0.00
2013-6-2,87,80,71,-100,-100,-100,0,0,100,0.00,40.00,0,-999,0,0.00
2013-6-3,97,82,71,-100,-100,-100,0,0,100,0.00,40.00,0,-999,0,0.00
2013-6-4,97,84,73,-100,-100,-100,0,0,100,0.00,40.00,0,-999,0,0.00
2013-6-5,98,83,75,-100,-100,-100,0,0,100,0.00,40.00,0,-999,0,0.00
2013-6-6,94,81,69,-100,-100,-100,0,0,100,0.00,40.00,0,-999,0,0.00
2013-6-7,92,76,69,-100,-100,-100,0,0,100,0.00,40.00,0,-999,0,0.00
2013-6-8,88,80,71,-100,-100,-100,0,0,100,0.00,40.00,0,-999,0,0.00
2013-6-9,92,78,74,-100,-100,-100,0,0,100,0.00,40.00,0,-999,0,0.00
2013-6-10,94,83,72,-100,-100,-100,0,0,100,0.00,40.00,0,-999,0,0.00
2013-6-11,94,85,76,-100,-100,-100,0,0,100,0.00,40.00,0,-999,0,0.00
2013-6-12,95,86,78,-100,-100,-100,0,0,100,0.00,40.00,0,-999,0,0.00
2013-6-13,100,89,79,-100,-100,-100,0,0,100,0.00,40.00,0,-999,0,0.00
2013-6-14,98,87,80,-100,-100,-100,0,0,100,0.00,40.00,0,-999,0,0.00
2013-6-15,97,83,74,-100,-100,-100,0,0,100,0.00,40.00,0,-999,0,0.00
2013-6-16,94,86,78,-100,-100,-100,0,0,100,0.00,40.00,0,-999,0,0.00
2013-6-17,96,86,80,-100,-100,-100,0,0,100,0.00,40.00,0,-999,0,0.00
2013-6-18,91,84,75,-100,-100,-100,0,0,100,0.00,40.00,0,-999,0,0.00
2013-6-19,96,81,75,-100,-100,-100,0,0,100,0.00,40.00,0,-999,0,0.00
2013-6-20,94,85,79,-100,-100,-100,0,0,100,0.00,40.00,0,-999,0,0.00
2013-6-22,91,88,79,-100,-100,-100,0,0,100,0.00,40.00,0,-999,0,0.00
2013-6-23,93,83,76,-100,-100,-100,0,0,100,0.00,40.00,0,-999,0,0.00
2013-6-24,93,85,76,-100,-100,-100,0,0,100,0.00,40.00,0,-999,0,0.00
2013-6-25,96,89,79,-100,-100,-100,0,0,100,0.00,40.00,0,-999,0,0.00
2013-6-26,96,88,80,-100,-100,-100,0,0,100,0.00,40.00,0,-999,0,0.00
2013-6-27,101,86,77,-100,-100,-100,0,0,100,0.00,40.00,0,-999,0,0.00
2013-6-28,101,88,80,-100,-100,-100,0,0,100,0.00,40.00,0,-999,0,0.00
2013-6-29,104,93,80,-100,-100,-100,0,0,100,0.00,40.00,0,-999,0,0.00
2013-6-30,98,85,73,-100,-100,-100,0,0,100,0.00,40.00,0,-999,0,0.00
2013-7-1,91,82,71,-100,-100,-100,0,0,100,0.00,40.00,0,-999,0,0.00
2013-7-2,94,79,71,-100,-100,-100,0,0,100,0.00,40.00,0,-999,0,0.00
2013-7-3,96,84,72,-100,-100,-100,0,0,100,0.00,40.00,0,-999,0,0.00
2013-7-4,95,83,72,-100,-100,-100,0,0,100,0.00,40.00,0,-999,0,0.00
2013-7-5,98,86,73,-100,-100,-100,0,0,100,0.00,40.00,0,-999,0,0.00
2013-7-6,97,82,74,-100,-100,-100,0,0,100,0.00,40.00,0,-999,0,0.00
2013-7-7,87,81,78,-100,-100,-100,0,0,100,0.00,40.00,0,-999,0,0.00
2013-7-8,92,82,77,-100,-100,-100,0,0,100,0.00,40.00,0,-999,0,0.00
2013-7-9,97,85,77,-100,-100,-100,0,0,100,0.00,40.00,0,-999,0,0.00
2013-7-10,96,86,79,-100,-100,-100,0,0,100,0.00,40.00,0,-999,0,0.00
2013-7-11,96,83,80,-100,-100,-100,0,0,100,0.00,40.00,0,-999,0,0.00
2013-7-12,98,84,79,-100,-100,-100,0,0,100,0.00,40.00,0,-999,0,0.00
2013-7-13,101,89,77,-100,-100,-100,0,0,100,0.00,40.00,0,-999,0,0.00
2013-7-14,91,83,76,-100,-100,-100,0,0,100,0.00,40.00,0,-999,0,0.00
2013-7-15,94,82,74,-100,-100,-100,0,0,100,0.00,40.00,0,-999,0,0.00
2013-7-16,91,80,76,-100,-100,-100,0,0,100,0.00,40.00,0,-999,0,0.00
2013-7-17,89,81,76,-100,-100,-100,0,0,100,0.00,40.00,0,-999,0,0.00
2013-7-18,94,83,73,-100,-100,-100,0,0,100,0.00,40.00,0,-999,0,0.00
2013-7-19,91,78,73,-100,-100,-100,0,0,100,0.00,40.00,0,-999,0,0.00
2013-7-20,91,80,74,-100,-100,-100,0,0,100,0.00,40.00,0,-999,0,0.00
2013-7-21,89,80,76,-100,-100,-100,0,0,100,0.00,40.00,0,-999,0,0.00
2013-7-22,94,86,80,-100,-100,-100,0,0,100,0.00,40.00,0,-999,0,0.00
2013-7-23,94,85,80,-100,-100,-100,0,0,100,0.00,40.00,0,-999,0,0.00
2013-7-24,94,87,79,-100,-100,-100,0,0,100,0.00,40.00,0,-999,0,0.00
2013-7-25,100,88,82,-100,-100,-100,0,0,100,0.00,40.00,0,-999,0,0.00
2013-7-26,94,86,80,-100,-100,-100,0,0,100,0.00,40.00,0,-999,0,0.00
2013-7-27,95,86,80,-100,-100,-100,0,0,100,0.00,40.00,0,-999,0,0.00
2013-7-28,86,80,77,-100,-100,-100,0,0,100,0.00,40.00,0,-999,0,0.00
2013-7-29,96,83,76,-100,-100,-100,0,0,100,0.00,40.00,0,-999,0,0.00
2013-7-30,96,85,76,-100,-100,-100,0,0,100,0.00,40.00,0,-999,0,0.00
2013-7-31,98,87,76,-100,-100,-100,0,0,100,0.00,40.00,0,-999,0,0.00
2013-8-1,100,86,80,-100,-100,-100,0,0,100,0.00,40.00,0,-999,0,0.00
2013-8-2,98,88,80,-100,-100,-100,0,0,100,0.00,40.00,0,-999,0,0.00
2013-8-3,96,87,80,-100,-100,-100,0,0,100,0.00,40.00,0,-999,0,0.00
2013-8-4,97,88,81,-100,-100,-100,0,0,100,0.00,40.00,0,-999,0,0.00
2013-8-5,98,89,82,-100,-100,-100,0,0,100,0.00,40.00,0,-999,0,0.00
2013-8-6,99,89,81,-100,-100,-100,0,0,100,0.00,40.00,0,-999,0,0.00
2013-8-7,100,88,82,-100,-100,-100,0,0,100,0.00,40.00,0,-999,0,0.00
2013-8-8,99,89,80,-100,-100,-100,0,0,100,0.00,40.00,0,-999,0,0.00
2013-8-9,102,94,87,-100,-100,-100,0,0,100,0.00,40.00,0,-999,0,0.00
2013-8-10,97,85,79,-100,-100,-100,0,0,100,0.00,40.00,0,-999,0,0.00
2013-8-11,93,83,76,-100,-100,-100,0,0,100,0.00,40.00,0,-999,0,0.00
2013-8-12,94,85,79,-100,-100,-100,0,0,100,0.00,40.00,0,-999,0,0.00
2013-8-13,101,88,81,-100,-100,-100,0,0,100,0.00,40.00,0,-999,0,0.00
2013-8-14,96,85,78,-100,-100,-100,0,0,100,0.00,40.00,0,-999,0,0.00
2013-8-15,88,79,76,-100,-100,-100,0,0,100,0.00,40.00,0,-999,0,0.00
2013-8-16,97,83,74,-100,-100,-100,0,0,100,0.00,40.00,0,-999,0,0.00
2013-8-17,94,80,71,-100,-100,-100,0,0,100,0.00,40.00,0,-999,0,0.00
2013-8-18,96,85,73,-100,-100,-100,0,0,100,0.00,40.00,0,-999,0,0.00
2013-8-19,98,83,73,-100,-100,-100,0,0,100,0.00,40.00,0,-999,0,0.00
2013-8-20,87,79,74,-100,-100,-100,0,0,100,0.00,40.00,0,-999,0,0.00
2013-8-21,96,86,75,-100,-100,-100,0,0,100,0.00,40.00,0,-999,0,0.00
2013-8-22,92,86,80,-100,-100,-100,0,0,100,0.00,40.00,0,-999,0,0.00
2013-8-23,98,86,77,-100,-100,-100,0,0,100,0.00,40.00,0,-999,0,0.00
2013-8-24,98,87,77,-100,-100,-100,0,0,100,0.00,40.00,0,-999,0,0.00
2013-8-25,88,82,77,-100,-100,-100,0,0,100,0.00,40.00,0,-999,0,0.00
2013-8-26,80,77,76,-100,-100,-100,0,0,100,0.00,40.00,0,-999,0,0.00
2013-8-27,94,78,74,-100,-100,-100,0,0,100,0.00,40.00,0,-999,0,0.00
2013-8-28,97,90,83,-100,-100,-100,0,0,100,0.00,40.00,0,-999,0,0.00
2013-8-29,98,86,80,-100,-100,-100,0,0,100,0.00,40.00,0,-999,0,0.00
2013-8-30,97,83,78,-100,-100,-100,0,0,100,0.00,40.00,0,-999,0,0.00
2013-8-31,98,86,77,-100,-100,-100,0,0,100,0.00,40.00,0,-999,0,0.00
2013-9-1,96,87,79,-100,-100,-100,0,0,100,0.00,40.00,0,-999,0,0.00
2013-9-2,97,85,79,-100,-100,-100,0,0,100,0.00,40.00,0,-999,0,0.00
2013-9-3,100,88,77,-100,-100,-100,0,0,100,0.00,40.00,0,-999,0,0.00
2013-9-4,94,84,76,-100,-100,-100,0,0,100,0.00,40.00,0,-999,0,0.00
2013-9-5,91,80,76,-100,-100,-100,0,0,100,0.00,40.00,0,-999,0,0.00
2013-9-6,89,82,76,-100,-100,-100,0,0,100,0.00,40.00,0,-999,0,0.00
2013-9-7,80,78,76,-100,-100,-100,0,0,100,0.00,40.00,0,-999,0,0.00
2013-9-8,94,81,73,-100,-100,-100,0,0,100,0.00,40.00,0,-999,0,0.00
2013-9-9,93,82,76,-100,-100,-100,0,0,100,0.00,40.00,0,-999,0,0.00
2013-9-10,93,82,76,-100,-100,-100,0,0,100,0.00,40.00,0,-999,0,0.00
2013-9-11,93,82,76,-100,-100,-100,0,0,100,0.00,40.00,0,-999,0,0.00
2013-9-12,95,83,76,-100,-100,-100,0,0,100,0.00,40.00,0,-999,0,0.00
2013-9-13,98,84,76,-100,-100,-100,0,0,100,0.00,40.00,0,-999,0,0.00
2013-9-14,94,82,77,-100,-100,-100,0,0,100,0.00,40.00,0,-999,0,0.00
2013-9-15,93,82,76,-100,-100,-100,0,0,100,0.00,40.00,0,-999,0,0.00
2013-9-16,95,83,74,-100,-100,-100,0,0,100,0.00,40.00,0,-999,0,0.00
2013-9-17,95,86,77,-100,-100,-100,0,0,100,0.00,40.00,0,-999,0,0.00
2013-9-18,83,80,79,-100,-100,-100,0,0,100,0.00,40.00,0,-999,0,0.00
2013-9-19,89,82,77,-100,-100,-100,0,0,100,0.00,40.00,0,-999,0,0.00
2013-9-20,80,78,77,-100,-100,-100,0,0,100,0.00,40.00,0,-999,0,0.00
2013-9-21,78,75,73,-100,-100,-100,0,0,100,0.00,40.00,0,-999,0,0.00
2013-9-22,84,77,69,-100,-100,-100,0,0,100,0.00,40.00,0,-999,0,0.00
2013-9-23,91,78,66,-100,-100,-100,0,0,100,0.00,40.00,0,-999,0,0.00
2013-9-24,93,85,79,-100,-100,-100,0,0,100,0.00,40.00,0,-999,0,0.00
2013-9-25,95,80,72,-100,-100,-100,0,0,100,0.00,40.00,0,-999,0,0.00
2013-9-26,94,79,70,-100,-100,-100,0,0,100,0.00,40.00,0,-999,0,0.00
2013-9-27,91,79,72,-100,-100,-100,0,0,100,0.00,40.00,0,-999,0,0.00
2013-9-28,91,82,77,-100,-100,-100,0,0,100,0.00,40.00,0,-999,0,0.00
2013-9-29,84,79,74,-100,-100,-100,0,0,100,0.00,40.00,0,-999,0,0.00
2013-9-30,87,77,73,-100,-100,-100,0,0,100,0.00,40.00,0,-999,0,0.00
2013-10-1,80,78,76,-100,-100,-100,0,0,100,0.00,40.00,0,-999,0,0.00
2013-10-2,87,80,76,-100,-100,-100,0,0,100,0.00,40.00,0,-999,0,0.00
2013-10-3,90,81,76,-100,-100,-100,0,0,100,0.00,40.00,0,-999,0,0.00
2013-10-4,90,81,74,-100,-100,-100,0,0,100,0.00,40.00,0,-999,0,0.00
2013-10-5,91,82,77,-100,-100,-100,0,0,100,0.00,40.00,0,-999,0,0.00
2013-10-6,76,67,62,-100,-100,-100,0,0,100,0.00,40.00,0,-999,0,0.00
2013-10-7,79,66,57,-100,-100,-100,0,0,100,0.00,40.00,0,-999,0,0.00
2013-10-8,80,67,57,-100,-100,-100,0,0,100,0.00,40.00,0,-999,0,0.00
2013-10-9,83,69,58,-100,-100,-100,0,0,100,0.00,40.00,0,-999,0,0.00
2013-10-10,87,72,62,-100,-100,-100,0,0,100,0.00,40.00,0,-999,0,0.00
2013-10-11,90,77,66,-100,-100,-100,0,0,100,0.00,40.00,0,-999,0,0.00
2013-10-12,92,80,72,-100,-100,-100,0,0,100,0.00,40.00,0,-999,0,0.00
2013-10-13,79,76,72,-100,-100,-100,0,0,100,0.00,40.00,0,-999,0,0.00
2013-10-14,85,78,73,-100,-100,-100,0,0,100,0.00,40.00,0,-999,0,0.00
2013-10-15,88,78,71,-100,-100,-100,0,0,100,0.00,40.00,0,-999,0,0.00
2013-10-16,86,78,73,-100,-100,-100,0,0,100,0.00,40.00,0,-999,0,0.00
2013-10-17,74,68,61,-100,-100,-100,0,0,100,0.00,40.00,0,-999,0,0.00
2013-10-18,73,65,58,-100,-100,-100,0,0,100,0.00,40.00,0,-999,0,0.00
2013-10-19,72,64,56,-100,-100,-100,0,0,100,0.00,40.00,0,-999,0,0.00
2013-10-20,75,60,51,-100,-100,-100,0,0,100,0.00,40.00,0,-999,0,0.00
2013-10-21,77,66,58,-100,-100,-100,0,0,100,0.00,40.00,0,-999,0,0.00
2013-10-22,71,66,58,-100,-100,-100,0,0,100,0.00,40.00,0,-999,0,0.00
2013-10-23,82,63,53,-100,-100,-100,0,0,100,0.00,40.00,0,-999,0,0.00
2013-10-24,83,72,55,-100,-100,-100,0,0,100,0.00,40.00,0,-999,0,0.00
2013-10-25,74,64,57,-100,-100,-100,0,0,100,0.00,40.00,0,-999,0,0.00
2013-10-26,79,63,51,-100,-100,-100,0,0,100,0.00,40.00,0,-999,0,0.00
2013-10-27,77,68,63,-100,-100,-100,0,0,100,0.00,40.00,0,-999,0,0.00
2013-10-28,83,74,62,-100,-100,-100,0,0,100,0.00,40.00,0,-999,0,0.00
2013-10-29,83,74,69,-100,-100,-100,0,0,100,0.00,40.00,0,-999,0,0.00
2013-10-30,79,74,71,-100,-100,-100,0,0,100,0.00,40.00,0,-999,0,0.00
2013-10-31,78,73,65,-100,-100,-100,0,0,100,0.00,40.00,0,-999,0,0.00
2013-11-1,80,67,60,-100,-100,-100,0,0,100,0.00,40.00,0,-999,0,0.00
2013-11-2,76,64,54,-100,-100,-100,0,0,100,0.00,40.00,0,-999,0,0.00
2013-11-3,69,58,47,-100,-100,-100,0,0,100,0.00,40.00,0,-999,0,0.00
2013-11-4,77,66,52,-100,-100,-100,0,0,100,0.00,40.00,0,-999,0,0.00
2013-11-5,80,72,66,-100,-100,-100,0,0,100,0.00,40.00,0,-999,0,0.00
2013-11-6,81,72,57,-100,-100,-100,0,0,100,0.00,40.00,0,-999,0,0.00
2013-11-7,70,57,49,-100,-100,-100,0,0,100,0.00,40.00,0,-999,0,0.00
2013-11-8,69,58,48,-100,-100,-100,0,0,100,0.00,40.00,0,-999,0,0.00
2013-11-9,75,65,52,-100,-100,-100,0,0,100,0.00,40.00,0,-999,0,0.00
2013-11-10,76,60,51,-100,-100,-100,0,0,100,0.00,40.00,0,-999,0,0.00
2013-11-11,79,63,54,-100,-100,-100,0,0,100,0.00,40.00,0,-999,0,0.00
2013-11-12,63,56,47,-100,-100,-100,0,0,100,0.00,40.00,0,-999,0,0.00
2013-11-13,58,46,36,-100,-100,-100,0,0,100,0.00,40.00,0,-999,0,0.00
2013-11-14,62,46,35,-100,-100,-100,0,0,100,0.00,40.00,0,-999,0,0.00
2013-11-15,78,62,52,-100,-100,-100,0,0,100,0.00,40.00,0,-999,0,0.00
2013-11-16,79,72,59,-100,-100,-100,0,0,100,0.00,40.00,0,-999,0,0.00
2013-11-17,85,78,74,-100,-100,-100,0,0,100,0.00,40.00,0,-999,0,0.00
2013-11-18,79,73,63,-100,-100,-100,0,0,100,0.00,40.00,0,-999,0,0.00
2013-11-19,71,61,51,-100,-100,-100,0,0,100,0.00,40.00,0,-999,0,0.00
2013-11-20,73,62,46,-100,-100,-100,0,0,100,0.00,40.00,0,-999,0,0.00
2013-11-21,78,72,65,-100,-100,-100,0,0,100,0.00,40.00,0,-999,0,0.00
2013-11-22,76,68,54,-100,-100,-100,0,0,100,0.00,40.00,0,-999,0,0.00
2013-11-23,54,51,46,-100,-100,-100,0,0,100,0.00,40.00,0,-999,0,0.00
2013-11-24,54,46,40,-100,-100,-100,0,0,100,0.00,40.00,0,-999,0,0.00
2013-11-25,45,43,40,-100,-100,-100,0,0,100,0.00,40.00,0,-999,0,0.00
2013-11-26,43,42,40,-100,-100,-100,0,0,100,0.00,40.00,0,-999,0,0.00
2013-11-27,51,42,35,-100,-100,-100,0,0,100,0.00,40.00,0,-999,0,0.00
2013-11-28,53,41,33,-100,-100,-100,0,0,100,0.00,40.00,0,-999,0,0.00
2013-11-29,63,44,32,-100,-100,-100,0,0,100,0.00,40.00,0,-999,0,0.00
2013-11-30,70,50,37,-100,-100,-100,0,0,100,0.00,40.00,0,-999,0,0.00
2013-12-1,70,63,45,-100,-100,-100,0,0,100,0.00,40.00,0,-999,0,0.00
2013-12-2,77,69,63,-100,-100,-100,0,0,100,0.00,40.00,0,-999,0,0.00
2013-12-3,79,70,63,-100,-100,-100,0,0,100,0.00,40.00,0,-999,0,0.00
2013-12-4,80,74,69,-100,-100,-100,0,0,100,0.00,40.00,0,-999,0,0.00
2013-12-5,80,70,49,-100,-100,-100,0,0,100,0.00,40.00,0,-999,0,0.00
2013-12-6,49,45,42,-100,-100,-100,0,0,100,0.00,40.00,0,-999,0,0.00
2013-12-7,42,40,37,-100,-100,-100,0,0,100,0.00,40.00,0,-999,0,0.00
2013-12-8,49,43,38,-100,-100,-100,0,0,100,0.00,40.00,0,-999,0,0.00
2013-12-9,50,47,42,-100,-100,-100,0,0,100,0.00,40.00,0,-999,0,0.00
2013-12-10,54,44,36,-100,-100,-100,0,0,100,0.00,40.00,0,-999,0,0.00
2013-12-11,53,45,36,-100,-100,-100,0,0,100,0.00,40.00,0,-999,0,0.00
2013-12-12,58,45,36,-100,-100,-100,0,0,100,0.00,40.00,0,-999,0,0.00
2013-12-13,64,51,41,-100,-100,-100,0,0,100,0.00,40.00,0,-999,0,0.00
2013-12-14,64,56,47,-100,-100,-100,0,0,100,0.00,40.00,0,-999,0,0.00
2013-12-15,57,43,37,-100,-100,-100,0,0,100,0.00,40.00,0,-999,0,0.00
2013-12-16,65,46,33,-100,-100,-100,0,0,100,0.00,40.00,0,-999,0,0.00
2013-12-17,73,50,36,-100,-100,-100,0,0,100,0.00,40.00,0,-999,0,0.00
2013-12-18,71,53,42,-100,-100,-100,0,0,100,0.00,40.00,0,-999,0,0.00
2013-12-19,73,59,54,-100,-100,-100,0,0,100,0.00,40.00,0,-999,0,0.00
2013-12-20,74,71,69,-100,-100,-100,0,0,100,0.00,40.00,0,-999,0,0.00
2013-12-21,75,69,57,-100,-100,-100,0,0,100,0.00,40.00,0,-999,0,0.00
2013-12-22,63,58,47,-100,-100,-100,0,0,100,0.00,40.00,0,-999,0,0.00
2013-12-23,56,41,36,-100,-100,-100,0,0,100,0.00,40.00,0,-999,0,0.00
2013-12-24,60,40,32,-100,-100,-100,0,0,100,0.00,40.00,0,-999,0,0.00
2013-12-25,62,46,38,-100,-100,-100,0,0,100,0.00,40.00,0,-999,0,0.00
2013-12-26,65,53,42,-100,-100,-100,0,0,100,0.00,40.00,0,-999,0,0.00
2013-12-27,58,52,47,-100,-100,-100,0,0,100,0.00,40.00,0,-999,0,0.00
2013-12-28,57,52,43,-100,-100,-100,0,0,100,0.00,40.00,0,-999,0,0.00
2013-12-29,69,50,36,-100,-100,-100,0,0,100,0.00,40.00,0,-999,0,0.00
2013-12-30,51,48,44,-100,-100,-100,0,0,100,0.00,40.00,0,-999,0,0.00
2013-12-31,54,46,41,-100,-100,-100,0,0,100,0.00,40.00,0,-999,0,0.00
2014-1-1,61,54,47,-100,-100,-100,0,0,100,0.00,40.00,0,-999,0,0.00
2014-1-2,58,51,40,-100,-100,-100,0,0,100,0.00,40.00,0,-999,0,0.00